Location: St. Louis
(38.6270°N, 90.1994°W)
Time: 09:05:39
(UTC-06:00)

SR - Pass Details

Date: 01 December 2021
Orbit: 582 x 872 km, 66.7° (Epoch: 21 January)

Event Time Altitude Azimuth Distance (km) Brightness Sun altitude
Rises 22:28:41 0° 170° (S) 3,055 - -65.9°
Reaches altitude 10° 22:31:40 10° 152° (SSE) 2,087 - -66.3°
Maximum altitude 22:34:53 19° 109° (ESE) 1,549 - -66.8°
Drops below altitude 10° 22:37:58 10° 65° (ENE) 1,992 - -67.3°
Sets 22:40:43 0° 47° (NE) 2,864 - -67.7°
